www.pogodaiklimat.ru

Погода и климат >> Архив погоды >> Япония >> Сиономисаки


ПОГОДА в Сиономисаки

  • Прогноз погоды в Сиономисаки
  • Монитор погоды в Сиономисаки

АРХИВ ПОГОДЫ в Сиономисаки

Время (UTC), дата Ветер
(напр.,м/с)
 
Видим.   Явления Облачность Т
(С)
Тd
(С)
f
(%)
Тe
(С)
Тes
(С)
Комфортность P
(гПа)
Po
(гПа)
Тmin
(С)
Tmax
(С)
R
(мм)
R24
(мм)
S
(см)
22 11.06 С 2 15 км н/о +19.3 +17.3 88 +22 +22 комфорт 1007.1 999.1
23 11.06 С 2 20 км н/о +20.9 +18.3 85 +26 +26 душно 1007.2 999.2
00 12.06 СВ 3 20 км н/о +22.1 +17.9 77 +27 +27 душно 1007.3 999.3 +17.5
01 12.06 В 3 20 км н/о +23.0 +17.7 72 +28 +28 душно 1007.2 999.3
02 12.06 СЗ 2 20 км н/о +21.8 +18.2 80 +27 +27 душно 1007.3 999.3
03 12.06 З 3 19 км н/о +22.9 +18.7 77 +29 +29 очень
душно
1007.3 999.4
04 12.06 З 3 20 км н/о +23.0 +18.3 75 +29 +29 очень
душно
1007.2 999.3
05 12.06 З 3 20 км н/о +23.8 +18.9 74 +29 +29 душно 1006.9 999.0
06 12.06 ЮЗ 2 20 км н/о +22.4 +18.2 77 +28 +28 душно 1007.0 999.1
07 12.06 СЗ 1 20 км н/о +22.6 +18.4 77 +28 +28 душно 1007.1 999.2
08 12.06 В 4 20 км слаб. дождь н/о +22.6 +18.6 78 +28 +28 душно 1006.9 999.0
09 12.06 В 3 20 км в посл. час дождь н/о +22.2 +19.0 82 +28 +28 душно 1007.4 999.4
10 12.06 СВ 3 20 км н/о +21.3 +19.1 87 +26 +26 душно 1008.0 1000.0
11 12.06 В 1 20 км н/о +21.1 +18.9 87 +25 +25 комфорт 1008.9 1000.9
12 12.06 СВ 3 20 км {дождь} н/о +20.4 +18.5 89 +25 +25 комфорт 1009.3 1001.3 +24.1 0.0
13 12.06 СВ 2 20 км н/о +19.9 +18.2 90 +23 +23 комфорт 1009.9 1001.9
14 12.06 СВ 2 20 км н/о +19.7 +18.0 90 +23 +23 комфорт 1010.1 1002.0
15 12.06 С 2 20 км н/о +19.7 +18.2 91 +23 +23 комфорт 1010.0 1001.9
16 12.06 С 3 20 км н/о +19.2 +17.7 91 +21 +21 комфорт 1009.9 1001.8
17 12.06 СВ 4 20 км н/о +19.0 +17.2 89 +21 +21 комфорт 1009.6 1001.5
18 12.06 СВ 4 20 км н/о +18.8 +17.1 90 +20 +20 1009.7 1001.6
19 12.06 СВ 3 20 км н/о +18.9 +17.4 91 +20 +20 1010.0 1001.9
20 12.06 СВ 3 17 км н/о +18.8 +17.1 90 +20 +20 1010.4 1002.3
21 12.06 С 3 20 км н/о +19.8 +17.8 88 +23 +23 комфорт 1010.9 1002.8
22 12.06 СВ 4 20 км н/о +21.0 +17.8 82 +25 +25 комфорт 1011.2 1003.2
23 12.06 СВ 5 20 км н/о +21.9 +17.7 77 +26 +26 душно 1011.7 1003.7
00 13.06 СВ 5 20 км н/о +23.0 +17.9 73 +28 +28 душно 1012.1 1004.1 +18.7
01 13.06 СВ 5 20 км н/о +24.1 +18.7 72 +29 +29 душно 1012.3 1004.4
02 13.06 СВ 6 20 км н/о +24.3 +17.6 66 +28 +28 душно 1012.3 1004.4
03 13.06 СВ 5 20 км н/о +24.8 +17.0 62 +29 +29 душно 1011.9 1004.0
04 13.06 В 6 20 км н/о +24.5 +18.7 70 +29 +29 душно 1011.6 1003.7
05 13.06 В 8 20 км н/о +24.2 +18.4 70 +29 +29 душно 1011.4 1003.5
06 13.06 В 6 20 км н/о +24.1 +19.2 74 +29 +29 душно 1011.5 1003.6
07 13.06 В 6 20 км н/о +24.1 +19.8 77 +29 +29 душно 1011.3 1003.4
08 13.06 В 5 20 км н/о +23.6 +19.8 79 +29 +29 душно 1011.2 1003.3
09 13.06 В 6 20 км н/о +22.6 +19.2 81 +29 +29 очень
душно
1011.8 1003.8
10 13.06 В 6 20 км н/о +21.8 +19.4 86 +27 +27 душно 1012.1 1004.1
11 13.06 СВ 4 20 км н/о +21.8 +19.9 89 +27 +27 душно 1012.3 1004.3
12 13.06 В 5 20 км н/о +21.8 +20.1 90 +27 +27 душно 1012.8 1004.8 +25.4
13 13.06 В 4 20 км н/о +21.7 +20.2 91 +27 +27 душно 1012.9 1004.9
14 13.06 В 4 16 км н/о +21.8 +20.6 93 +28 +28 душно 1012.7 1004.7
15 13.06 В 3 13 км н/о +21.6 +20.8 95 +27 +27 душно 1012.4 1004.4
16 13.06 В 4 13 км н/о +21.5 +20.7 95 +27 +27 душно 1012.1 1004.1
17 13.06 В 4 12 км н/о +21.5 +20.7 95 +27 +27 душно 1011.6 1003.6
18 13.06 В 4 10 км н/о +21.5 +20.8 96 +27 +27 душно 1011.1 1003.1
19 13.06 В 3 8000 м дымка н/о +21.4 +20.9 97 +27 +27 душно 1011.1 1003.1
20 13.06 В 4 9000 м дымка н/о +21.4 +20.7 96 +27 +27 душно 1011.1 1003.1
21 13.06 В 4 11 км н/о +22.0 +21.0 94 +28 +28 душно 1010.9 1002.9
22 13.06 В 5 12 км н/о +22.5 +21.1 92 +30 +30 очень
душно
1010.7 1002.7
23 13.06 В 6 13 км н/о +22.9 +21.4 91 +30 +30 очень
душно
1010.8 1002.8
00 14.06 В 6 16 км н/о +23.2 +20.9 87 +31 +31 очень
душно
1010.7 1002.8 +21.3
02 14.06 В 6 19 км н/о +23.8 +20.6 82 +30 +30 очень
душно
1010.1 1002.2
03 14.06 В 6 16 км слаб. дождь н/о +22.1 +20.6 91 +28 +28 душно 1010.0 1002.0
04 14.06 В 7 15 км в посл. час дождь н/о +22.9 +20.1 84 +30 +30 очень
душно
1009.5 1001.6
05 14.06 ЮВ 8 17 км н/о +23.2 +19.8 81 +30 +30 очень
душно
1008.8 1000.9
06 14.06 В 9 16 км {дождь} н/о +22.8 +19.0 79 +29 +29 очень
душно
1008.1 1000.2 0.5
07 14.06 В 9 15 км н/о +22.2 +18.8 81 +28 +28 душно 1007.8 999.8
08 14.06 В 9 13 км слаб. дождь н/о +21.4 +18.8 85 +26 +26 душно 1007.7 999.7
09 14.06 В 8 11 км слаб. дождь н/о +20.5 +18.8 90 +24 +24 комфорт 1007.8 999.8
10 14.06 В 8 9000 м слаб. дождь н/о +20.4 +19.1 92 +24 +24 комфорт 1007.4 999.4
11 14.06 В 7 10 км слаб. дождь н/о +19.8 +19.0 95 +22 +22 комфорт 1006.6 998.6
12 14.06 В 9 10 км слаб. дождь н/о +19.8 +19.2 96 +22 +22 комфорт 1006.1 998.1 +24.0 5
13 14.06 В 6 6000 м слаб. дождь н/о +19.9 +19.4 97 +23 +23 комфорт 1005.7 997.7
14 14.06 В 9 7000 м слаб. дождь н/о +18.0 +17.4 96 +17 +17 1005.0 996.9
15 14.06 В 9 6000 м дождь н/о +17.4 +16.8 96 +16 +16 1003.2 995.1
16 14.06 В 11 5000 м дождь н/о +17.8 +17.3 97 +16 +16 1001.6 993.6
17 14.06 СВ 10 5000 м слаб. дождь н/о +18.1 +17.8 98 +17 +17 1000.5 992.5
18 14.06 СВ 11 7000 м слаб. дождь н/о +18.4 +18.2 99 +18 +18 998.9 990.9 21
19 14.06 СВ 11 6000 м слаб. дождь н/о +18.9 +18.7 99 +19 +19 998.0 990.0
20 14.06 СВ 10 8000 м слаб. дождь н/о +18.7 +18.4 98 +19 +19 996.2 988.2
21 14.06 СВ 12 6000 м слаб. дождь н/о +19.5 +19.2 98 +21 +21 комфорт 996.4 988.4
22 14.06 СВ 11 6000 м слаб. дождь н/о +19.7 +19.6 99 +22 +22 комфорт 995.1 987.2
23 14.06 СВ 11 4700 м дождь н/о +19.2 +18.9 98 +20 +20 994.5 986.6
00 15.06 СВ 10 20 км в посл. час дождь н/о +19.2 +18.0 93 +20 +20 993.6 985.7 +17.3 27
01 15.06 СВ 10 20 км слаб. дождь н/о +19.5 +18.3 93 +21 +21 комфорт 993.2 985.3
02 15.06 СВ 9 20 км в посл. час дождь н/о +21.6 +18.8 84 +26 +26 душно 992.1 984.2
03 15.06 СВ 9 20 км {дождь} н/о +22.3 +19.3 83 +28 +28 душно 990.7 982.9
04 15.06 СВ 7 10 км слаб. дождь н/о +21.8 +19.9 89 +27 +27 душно 989.3 981.5
05 15.06 В 6 6000 м слаб. дождь н/о +21.8 +21.0 95 +28 +28 душно 988.2 980.4
06 15.06 ЮВ 6 5000 м в посл. час дождь н/о +23.2 +22.5 96 +32 +32 очень
душно
987.0 979.2 2
07 15.06 З 16 10 км н/о +23.1 +18.9 77 +29 +29 очень
душно
987.0 979.2
08 15.06 З 10 20 км н/о +21.9 +18.7 82 +27 +27 душно 989.2 981.4
09 15.06 З 7 14 км слаб. дождь н/о +20.8 +19.3 91 +25 +25 комфорт 989.5 981.6
10 15.06 З 4 12 км слаб. дождь н/о +20.2 +19.0 93 +24 +24 комфорт 989.6 981.7
11 15.06 З 7 9000 м слаб. дождь н/о +20.0 +19.2 95 +23 +23 комфорт 990.1 982.2
12 15.06 З 10 20 км слаб. дождь н/о +19.3 +18.3 94 +20 +20 991.3 983.4 +23.7 2
13 15.06 З 8 20 км в посл. час дождь н/о +20.1 +17.7 86 +23 +23 комфорт 992.3 984.4
14 15.06 З 8 8000 м слаб. дождь н/о +19.5 +18.3 93 +21 +21 комфорт 993.2 985.3
15 15.06 З 10 20 км в посл. час дождь н/о +20.3 +17.7 85 +23 +23 комфорт 993.9 986.0
16 15.06 З 8 20 км н/о +20.4 +17.4 83 +23 +23 комфорт 994.0 986.1
17 15.06 З 10 20 км н/о +20.6 +17.4 82 +23 +23 комфорт 994.9 987.0
18 15.06 З 9 20 км {дождь} н/о +20.8 +17.4 81 +24 +24 комфорт 995.4 987.5 0.0
19 15.06 З 10 20 км н/о +21.5 +16.9 75 +25 +25 комфорт 996.7 988.8
20 15.06 З 7 20 км н/о +21.3 +16.5 74 +25 +25 комфорт 997.7 989.8
21 15.06 З 8 20 км н/о +21.2 +15.5 70 +24 +24 комфорт 998.1 990.2
22 15.06 З 9 20 км н/о +21.9 +14.8 64 +25 +25 комфорт 999.0 991.1
23 15.06 З 7 20 км н/о +22.4 +15.8 66 +26 +26 жарко 999.7 991.8
00 16.06 З 7 19 км н/о +23.3 +15.4 61 +28 +28 душно 1000.3 992.4 +19.2 0.0
01 16.06 З 6 16 км н/о +24.1 +15.9 60 +27 +27 жарко 1000.5 992.7
02 16.06 З 7 20 км н/о +24.4 +15.4 57 +27 +27 жарко 1000.7 992.9
03 16.06 З 7 16 км н/о +24.7 +15.1 55 +28 +28 душно 1001.0 993.2
04 16.06 З 7 20 км н/о +25.1 +14.0 50 +27 +27 жарко 1001.5 993.7
05 16.06 З 8 20 км н/о +24.8 +15.4 56 +28 +28 жарко 1002.0 994.2
06 16.06 З 9 20 км н/о +25.3 +14.8 52 +28 +28 жарко 1002.3 994.5
07 16.06 З 8 20 км н/о +25.5 +14.6 51 +28 +28 жарко 1003.0 995.2
08 16.06 З 7 20 км н/о +25.1 +14.6 52 +28 +28 жарко 1003.7 995.9
09 16.06 СЗ 6 20 км н/о +24.2 +15.2 57 +27 +27 жарко 1004.3 996.4
10 16.06 З 5 20 км н/о +23.2 +15.0 60 +27 +27 душно 1005.3 997.4
11 16.06 З 5 20 км н/о +22.5 +14.9 62 +26 +26 жарко 1005.9 998.0
12 16.06 СЗ 6 20 км н/о +22.1 +15.9 68 +26 +26 душно 1007.3 999.3 +25.7
13 16.06 СЗ 3 20 км н/о +21.6 +14.5 64 +25 +25 комфорт 1008.2 1000.2
14 16.06 СЗ 5 20 км н/о +21.4 +13.8 62 +24 +24 комфорт 1008.2 1000.2
15 16.06 З 4 20 км н/о +20.8 +14.2 66 +24 +24 комфорт 1008.6 1000.6
16 16.06 З 3 20 км н/о +20.4 +13.9 66 +23 +23 комфорт 1008.5 1000.5
17 16.06 З 3 20 км н/о +20.0 +13.9 68 +22 +22 комфорт 1008.6 1000.6
18 16.06 З 2 20 км н/о +19.2 +15.1 77 +21 +21 комфорт 1008.8 1000.7
19 16.06 З 2 20 км н/о +18.7 +14.6 77 +20 +20 1009.5 1001.4
20 16.06 СЗ 2 20 км н/о +18.0 +13.5 75 +19 +19 1010.2 1002.1
21 16.06 СЗ 2 20 км н/о +18.4 +14.1 76 +19 +19 1010.8 1002.7
22 16.06 СЗ 2 20 км н/о +19.5 +13.5 68 +22 +22 комфорт 1011.5 1003.4
23 16.06 С 3 20 км н/о +20.3 +13.5 65 +23 +23 комфорт 1011.5 1003.5
00 17.06 СЗ 2 20 км н/о +21.3 +12.5 57 +24 +24 комфорт 1011.6 1003.6 +17.8
01 17.06 ЮЗ 2 20 км н/о +22.2 +14.3 61 +25 +25 комфорт 1011.9 1003.9
02 17.06 ЮЗ 2 20 км н/о +22.8 +15.2 62 +27 +27 душно 1012.3 1004.3
03 17.06 ЮЗ 2 20 км н/о +23.1 +14.7 59 +27 +27 душно 1011.9 1003.9
04 17.06 ЮЗ 2 20 км н/о +23.1 +15.2 61 +27 +27 душно 1011.4 1003.4
05 17.06 З 6 20 км н/о +23.2 +17.2 69 +28 +28 душно 1011.1 1003.1
06 17.06 З 8 20 км н/о +23.0 +17.5 71 +28 +28 душно 1010.4 1002.4
07 17.06 З 8 20 км н/о +23.6 +17.1 67 +27 +27 жарко 1010.1 1002.2
08 17.06 З 7 20 км н/о +23.8 +16.8 65 +27 +27 жарко 1010.0 1002.1
09 17.06 З 9 20 км н/о +23.0 +17.2 70 +28 +28 душно 1010.4 1002.4
10 17.06 З 8 20 км н/о +22.4 +16.9 71 +27 +27 душно 1011.1 1003.1
11 17.06 З 7 20 км н/о +22.0 +17.2 74 +26 +26 душно 1011.4 1003.4
12 17.06 З 3 20 км н/о +21.2 +16.6 75 +25 +25 комфорт 1012.2 1004.2 +24.4
13 17.06 З 2 20 км н/о +20.5 +16.3 77 +24 +24 комфорт 1012.7 1004.7
14 17.06 СЗ 2 20 км н/о +19.9 +15.1 74 +23 +23 комфорт 1012.7 1004.6
15 17.06 З 2 20 км н/о +20.4 +16.0 76 +24 +24 комфорт 1013.0 1004.9
16 17.06 СЗ 2 20 км н/о +19.7 +15.4 76 +22 +22 комфорт 1012.9 1004.8
18 17.06 СЗ 2 20 км н/о +19.2 +14.7 75 +21 +21 комфорт 1012.8 1004.7
19 17.06 С 2 20 км н/о +18.7 +15.4 81 +20 +20 1012.8 1004.7
20 17.06 СВ 2 20 км н/о +19.7 +13.4 67 +22 +22 комфорт 1012.7 1004.6
21 17.06 С 2 20 км н/о +19.2 +15.9 81 +21 +21 комфорт 1013.0 1004.9
22 17.06 С 2 20 км н/о +19.8 +15.0 74 +22 +22 комфорт 1013.5 1005.4
23 17.06 З 1 20 км н/о +23.0 +17.0 69 +28 +28 душно 1013.5 1005.5
00 18.06 Ю 1 20 км н/о +23.4 +16.5 65 +28 +28 душно 1013.0 1005.0 +18.6
01 18.06 ЮВ 2 20 км н/о +23.9 +16.2 62 +27 +27 жарко 1013.0 1005.1
02 18.06 Ю 1 20 км н/о +22.8 +17.7 73 +28 +28 душно 1013.1 1005.1
03 18.06 Ю 1 20 км н/о +24.2 +18.4 70 +29 +29 душно 1012.7 1004.8
04 18.06 ЮЗ 2 20 км н/о +23.2 +18.3 74 +29 +29 душно 1012.6 1004.6
05 18.06 ЮЗ 2 20 км н/о +23.0 +18.6 76 +29 +29 очень
душно
1012.4 1004.4
06 18.06 ЮЗ 2 20 км н/о +22.4 +18.6 79 +28 +28 душно 1012.0 1004.0
07 18.06 ЮЗ 2 20 км н/о +22.1 +18.5 80 +27 +27 душно 1011.5 1003.5
08 18.06 З 2 20 км н/о +22.0 +18.8 82 +27 +27 душно 1011.4 1003.4
09 18.06 З 2 20 км н/о +22.2 +18.6 80 +27 +27 душно 1011.3 1003.3
10 18.06 З 2 20 км н/о +21.8 +18.8 83 +27 +27 душно 1011.5 1003.5
11 18.06 СЗ 2 20 км н/о +21.6 +19.2 86 +27 +27 душно 1011.5 1003.5
12 18.06 С 1 20 км н/о +21.3 +18.7 85 +26 +26 душно 1011.9 1003.9 +24.4
13 18.06 С 2 20 км н/о +21.2 +19.1 88 +26 +26 душно 1011.7 1003.7
14 18.06 С 1 20 км н/о +21.4 +19.9 91 +26 +26 душно 1011.0 1003.0
15 18.06 СЗ 2 20 км н/о +21.3 +20.0 92 +26 +26 душно 1011.2 1003.2
16 18.06 З 2 19 км н/о +21.2 +20.2 94 +26 +26 душно 1010.6 1002.6
17 18.06 З 2 15 км н/о +21.3 +20.5 95 +27 +27 душно 1010.2 1002.2
18 18.06 З 4 9000 м дымка н/о +21.6 +20.9 96 +27 +27 душно 1009.6 1001.6
19 18.06 СЗ 2 10 км н/о +21.0 +20.5 97 +27 +27 душно 1009.5 1001.5
20 18.06 З 2 11 км н/о +20.9 +20.1 95 +27 +27 душно 1009.5 1001.5
21 18.06 СЗ 2 12 км н/о +20.8 +19.5 92 +26 +26 душно 1009.6 1001.6
22 18.06 З 2 20 км н/о +22.1 +18.7 81 +27 +27 душно 1009.5 1001.5

 

Местоположение метеостанции Сиономисаки (Япония): широта 33.45 долгота 135.76 высота над уровнем моря 75 м.

В архиве по умолчанию представлена погода в Сиономисаки за последнюю неделю. Архивные данные за месяц целиком и за предыдущие месяцы, начиная с января 2011 года, Вы можете получить, выбрав интересующий диапазон дат из раскрывающегося списка и нажав кнопку "Ввод!".


*Определитесь, кто Вы:
робот инопланетянин человек

Внимание! Время в таблицах - всемирное. Для получения местного времени необходимо прибавить поправку, которая равна 9 ч.

Смотрите также архив погоды в соседних городах и на ближайших метеорологических станциях:

Погода в Овасе (Япония) (80 км)
Погода в Вакаяме (Япония) (103 км)
Погода в Сумото (Япония) (126 км)
Погода в Токусиме (Япония) (131 км)
Погода в Осаке (Япония) (139 км)
Погода в Наре (Япония) (139 км)
Погода в Кобе (Япония) (148 км)
Погода в Муротомисаки (Япония) (148 км)
Погода в Уэно (Япония) (151 км)
Погода в Цу (Япония) (158 км)

Пояснения к столбцам:

Ветер - указаны скорость ветра в м/с - средняя за 10 мин, порывы в срок и между сроками (в фигурных скобках) и направление, откуда дует ветер: С - северный, СВ - северо-восточный, В - восточный, ЮВ - юго-восточный, Ю - южный, ЮЗ - юго-западный, З - западный, СЗ - северо-западный.
Видимость - горизонтальная дальность видимости в метрах или километрах. При видимости от 1 до 10 км при отсутствии осадков обычно наблюдается дымка, при ухудшении видимости до 1 км и менее - туман. В сухую погоду видимость может ухудшаться дымом, пылью или мглою.
Явления - указаны атмосферные явления, наблюдавшиеся в срок или в последний час перед сроком; фигурными скобками обозначены явления, наблюдавшиеся между сроками (за 1-3 часа до срока); квадратными скобками обозначены град или гололедные отложения с указанием их диаметра в мм.
Облачность - указаны через наклонную черту общая и нижняя облачность в баллах и высота нижней границы облаков в метрах; квадратными скобками обозначены формы облаков: Ci - перистые, Cs - перисто-слоистые, Cc - перисто-кучевые, Ac - высококучевые, As - высокослоистые, Sc - слоисто-кучевые, Ns - слоисто-дождевые, Cu - кучевые, Cb - кучево-дождевые. Подробнее классификацию облаков см. в Атласе облаков (PDF).
T - Температура воздуха - температура, измеренная на высоте 2 м над землей.
Td - Температура точки росы - температура, при понижении до которой содержащийся в воздухе водяной пар достигнет насыщения.
f - Относительная влажность воздуха - влажноcть воздуха, измеренная на высоте 2 м над землей.
Te - Эффективная температура - температура, которую ощущает одетый по сезону человек в тени. Характеристика душности погоды. При расчете учитывается влияние влажности воздуха и скорости ветра на теплоощущения человека.
Tes - Эффективная температура на солнце - температура, которую ощущает человек, с поправкой на солнечный нагрев. Характеристика знойности погоды. Зависит от высоты солнца над горизонтом, облачности и скорости ветра. Ночью, в пасмурную погоду, а также при ветре 12 м/с и более поправка равна нулю.
P - Атмосферное давление - приведенное к уровню моря атмосферное давление.
Po - Атмосферное давление - измеренное на уровне метеостанции атмосферное давление.
Tmin - Минимальная температура - минимум температуры воздуха на высоте 2 м над землей.
Tmax - Максимальная температура - максимум температуры воздуха на высоте 2 м над землей.
R - Количество осадков - Количество выпавших осадков за период времени, мм. При наведении курсора мыши на число - период времени, за который выпало указанное количество осадков.
R24 - Количество осадков - Количество выпавших осадков за 24 часа, мм.
S - Снежный покров - Высота снежного покрова, см. При наведении курсора мыши на число - состояние снежного покрова и степень покрытия местности в баллах.